CW6981 Weather Reports


Display with metric or nautical units.
time (UTC)temp
F
wind
direction
speed
MPH
gust
MPH
rain 1hr
in
rain 24hr
in
rain mn
in
humidity
%
barometer
mb
20240530122027 52 277 0.0 0.0 0.00 0.00 0.00 61 1017.9
20240530121537 52 277 0.0 0.0 0.00 0.00 0.00 61 1017.8
20240530121106 52 277 0.0 0.0 0.00 0.00 0.00 60 1017.8
20240530120534 52 277 0.0 0.0 0.00 0.00 0.00 61 1017.8
20240530120103 52 277 0.0 0.0 0.00 0.00 0.00 60 1017.7
20240530115535 53 277 0.0 0.0 0.00 0.00 0.00 61 1017.6
20240530115045 53 277 0.0 0.0 0.00 0.00 0.00 61 1017.6
20240530114525 53 277 0.0 0.0 0.00 0.00 0.00 60 1017.4
20240530114040 53 277 0.0 0.0 0.00 0.00 0.00 59 1017.3
20240530113530 54 277 0.0 0.0 0.00 0.00 0.00 60 1017.3
20240530113101 54 277 0.0 0.0 0.00 0.00 0.00 59 1017.2
20240530112534 54 277 0.0 1.0 0.00 0.00 0.00 57 1017.1
20240530112024 55 277 0.0 1.0 0.00 0.00 0.00 57 1017.1
20240530111537 55 277 0.0 1.0 0.00 0.00 0.00 56 1017.1
20240530111030 55 277 0.0 1.0 0.00 0.00 0.00 55 1017.1
20240530110522 56 277 0.0 1.0 0.00 0.00 0.00 57 1017.1
20240530110036 56 277 0.0 1.0 0.00 0.00 0.00 54 1017.2
20240530105532 57 277 0.0 0.0 0.00 0.00 0.00 53 1017.1
20240530105043 57 277 0.0 0.0 0.00 0.00 0.00 54 1017.1
20240530104533 57 277 0.0 1.0 0.00 0.00 0.00 52 1017.0
20240530104029 58 277 0.0 1.0 0.00 0.00 0.00 53 1016.9
20240530103539 58 277 0.0 0.0 0.00 0.00 0.00 54 1016.9
20240530103048 58 277 0.0 1.0 0.00 0.00 0.00 52 1016.8
20240530102536 59 277 0.0 1.0 0.00 0.00 0.00 54 1016.7
20240530102026 59 277 0.0 0.0 0.00 0.00 0.00 54 1016.6
20240530101554 59 277 0.0 1.0 0.00 0.00 0.00 53 1016.6
20240530101045 59 277 0.0 1.0 0.00 0.00 0.00 53 1016.6
20240530100533 59 277 0.0 1.0 0.00 0.00 0.00 52 1016.6
20240530100042 59 277 0.0 0.0 0.00 0.00 0.00 52 1016.5
20240530095555 59 277 0.0 0.0 0.00 0.00 0.00 52 1016.5
20240530095041 59 277 0.0 0.0 0.00 0.00 0.00 52 1016.4
20240530094531 59 277 0.0 0.0 0.00 0.00 0.00 51 1016.5
20240530094106 59 277 0.0 0.0 0.00 0.00 0.00 51 1016.4
20240530093533 59 277 0.0 1.0 0.00 0.00 0.00 52 1016.4
20240530093044 59 277 0.0 2.0 0.00 0.00 0.00 52 1016.3
20240530092526 59 279 0.0 4.0 0.00 0.00 0.00 52 1016.2
20240530092033 58 238 0.0 4.0 0.00 0.00 0.00 52 1016.1
20240530091539 58 283 0.0 2.0 0.00 0.00 0.00 53 1016.1
20240530091029 58 234 0.0 2.0 0.00 0.00 0.00 51 1016.1
20240530090540 58 276 0.0 2.0 0.00 0.00 0.00 52 1016.0
20240530090050 57 263 0.0 1.0 0.00 0.00 0.00 50 1016.0
20240530085538 57 267 0.0 1.0 0.00 0.00 0.00 51 1015.9
20240530085046 56 235 0.0 1.0 0.00 0.00 0.00 50 1015.8
20240530084535 56 235 0.0 1.0 0.00 0.00 0.00 52 1015.7
20240530084027 56 235 0.0 0.0 0.00 0.00 0.00 52 1015.6
20240530083537 55 235 0.0 0.0 0.00 0.00 0.00 53 1015.6
20240530083027 55 235 0.0 1.0 0.00 0.00 0.00 51 1015.4
20240530082538 55 235 0.0 1.0 0.00 0.00 0.00 52 1015.4
20240530082025 54 235 0.0 2.0 0.00 0.00 0.00 54 1015.4
20240530081553 54 235 0.0 2.0 0.00 0.00 0.00 55 1015.3
20240530081026 53 144 1.0 2.0 0.00 0.00 0.00 61 1015.2
20240530080531 53 196 0.0 1.0 0.00 0.00 0.00 57 1015.0
20240530080038 53 195 0.0 1.0 0.00 0.00 0.00 57 1014.8
20240530075534 53 195 0.0 1.0 0.00 0.00 0.00 58 1014.7
20240530075042 53 195 0.0 1.0 0.00 0.00 0.00 64 1014.6
20240530074524 54 195 0.0 1.0 0.00 0.00 0.00 66 1014.5
20240530074040 54 195 0.0 1.0 0.00 0.00 0.00 66 1014.5
20240530073550 54 195 0.0 0.0 0.00 0.00 0.00 66 1014.4
20240530073031 54 195 0.0 0.0 0.00 0.00 0.00 65 1014.4
20240530072543 55 195 0.0 0.0 0.00 0.00 0.00 63 1014.4
20240530072033 55 195 0.0 0.0 0.00 0.00 0.00 63 1014.4
20240530071543 55 195 0.0 0.0 0.00 0.00 0.00 63 1014.3
20240530071057 55 195 0.0 0.0 0.00 0.00 0.00 62 1014.3
20240530070607 56 195 0.0 0.0 0.00 0.00 0.00 62 1014.4
20240530070027 56 195 0.0 0.0 0.00 0.00 0.00 61 1014.5
20240530065600 56 195 0.0 0.0 0.00 0.00 0.00 61 1014.5
20240530065047 56 195 0.0 0.0 0.00 0.00 0.00 61 1014.5
20240530064539 56 195 0.0 0.0 0.00 0.00 0.00 61 1014.7
20240530064032 57 195 0.0 0.0 0.00 0.00 0.00 61 1014.6
20240530063524 57 195 0.0 0.0 0.00 0.00 0.00 60 1014.8
20240530063038 57 195 0.0 0.0 0.00 0.00 0.00 60 1014.7
20240530062530 57 195 0.0 0.0 0.00 0.00 0.00 59 1014.8
20240530062043 57 195 0.0 0.0 0.00 0.00 0.00 59 1014.8
20240530061534 57 195 0.0 0.0 0.00 0.00 0.00 59 1014.7
20240530061045 58 195 0.0 0.0 0.00 0.00 0.00 59 1014.7
20240530060527 58 195 0.0 0.0 0.00 0.00 0.00 59 1014.7
20240530060038 58 195 0.0 0.0 0.00 0.00 0.00 58 1014.6
20240530055545 58 195 0.0 0.0 0.00 0.00 0.00 59 1014.6
20240530055036 59 195 0.0 1.0 0.00 0.00 0.00 58 1014.7
20240530054531 59 195 0.0 1.0 0.00 0.00 0.00 57 1014.7
20240530054028 59 195 0.0 1.0 0.00 0.00 0.00 55 1014.7
20240530053538 59 195 0.0 1.0 0.00 0.00 0.00 54 1014.7
20240530053050 59 195 0.0 0.0 0.00 0.00 0.00 55 1014.8
20240530052527 59 195 0.0 0.0 0.00 0.00 0.00 54 1014.6
20240530052036 59 195 0.0 1.0 0.00 0.00 0.00 55 1014.6
20240530051527 60 195 0.0 1.0 0.00 0.00 0.00 56 1014.7
20240530051042 60 195 0.0 0.0 0.00 0.00 0.00 56 1014.7
20240530050533 60 195 0.0 1.0 0.00 0.00 0.00 55 1014.7
20240530050025 60 195 0.0 1.0 0.00 0.00 0.00 53 1014.7
20240530045542 61 195 0.0 1.0 0.00 0.00 0.00 52 1014.8
20240530045031 61 195 0.0 1.0 0.00 0.00 0.00 53 1014.8
20240530044544 61 195 0.0 1.0 0.00 0.00 0.00 53 1014.8
20240530044037 61 195 0.0 2.0 0.00 0.00 0.00 53 1014.8
20240530043526 62 196 1.0 2.0 0.00 0.00 0.00 53 1014.8
20240530043037 62 196 0.0 0.0 0.00 0.00 0.00 52 1014.7
20240530042530 62 196 0.0 0.0 0.00 0.00 0.00 51 1014.7
20240530042042 63 196 0.0 0.0 0.00 0.00 0.00 50 1014.8
20240530041531 63 196 0.0 0.0 0.00 0.00 0.00 50 1014.7
20240530041101 63 196 0.0 0.0 0.00 0.00 0.00 49 1014.8
20240530040608 64 196 0.0 0.0 0.00 0.00 0.00 47 1014.7
20240530040027 64 196 0.0 0.0 0.00 0.00 0.00 48 1014.8
20240530035538 64 196 0.0 0.0 0.00 0.00 0.00 47 1014.8
20240530035026 65 196 0.0 0.0 0.00 0.00 0.00 46 1014.8
20240530034535 65 196 0.0 0.0 0.00 0.00 0.00 46 1014.8
20240530034027 66 196 0.0 0.0 0.00 0.00 0.00 46 1014.8
20240530033533 66 196 0.0 0.0 0.00 0.00 0.00 45 1014.7
20240530033044 66 196 0.0 0.0 0.00 0.00 0.00 44 1014.8
20240530032534 67 196 0.0 0.0 0.00 0.00 0.00 44 1014.8
20240530032039 67 196 0.0 0.0 0.00 0.00 0.00 43 1014.8
20240530031529 67 196 0.0 0.0 0.00 0.00 0.00 43 1014.8
20240530031039 68 196 0.0 0.0 0.00 0.00 0.00 43 1014.8
20240530030547 68 196 0.0 0.0 0.00 0.00 0.00 42 1014.7
20240530030027 68 196 0.0 0.0 0.00 0.00 0.00 42 1014.6
20240530025539 68 196 0.0 0.0 0.00 0.00 0.00 42 1014.6
20240530025028 68 196 0.0 0.0 0.00 0.00 0.00 42 1014.5
20240530024537 68 196 0.0 0.0 0.00 0.00 0.00 40 1014.5
20240530024050 68 196 0.0 0.0 0.00 0.00 0.00 41 1014.5
20240530023538 68 196 0.0 1.0 0.00 0.00 0.00 41 1014.6
20240530023026 70 196 0.0 1.0 0.00 0.00 0.00 40 1014.7
20240530022537 71 196 0.0 0.0 0.00 0.00 0.00 35 1014.6
20240530022025 70 196 0.0 1.0 0.00 0.00 0.00 36 1014.5
20240530021550 72 196 0.0 1.0 0.00 0.00 0.00 37 1014.5
20240530021042 72 196 0.0 0.0 0.00 0.00 0.00 34 1014.4
20240530020533 73 196 0.0 1.0 0.00 0.00 0.00 33 1014.3
20240530020044 73 196 0.0 2.0 0.00 0.00 0.00 33 1014.2
20240530015558 73 189 0.0 2.0 0.00 0.00 0.00 33 1014.3
20240530015029 73 245 1.0 2.0 0.00 0.00 0.00 35 1014.2
20240530014540 74 321 0.0 1.0 0.00 0.00 0.00 33 1014.2
20240530014032 73 327 0.0 1.0 0.00 0.00 0.00 37 1014.2
20240530013542 71 328 0.0 1.0 0.00 0.00 0.00 42 1014.2
20240530013033 71 328 0.0 1.0 0.00 0.00 0.00 47 1014.1
20240530012544 72 328 0.0 1.0 0.00 0.00 0.00 41 1014.3
20240530012034 75 328 0.0 0.0 0.00 0.00 0.00 33 1014.3
20240530011527 74 328 0.0 0.0 0.00 0.00 0.00 33 1014.1
20240530011040 75 328 0.0 0.0 0.00 0.00 0.00 33 1014.0
20240530010531 75 328 0.0 0.0 0.00 0.00 0.00 32 1014.0
20240530010026 75 328 0.0 1.0 0.00 0.00 0.00 33 1013.9
20240530005545 76 328 0.0 1.0 0.00 0.00 0.00 31 1013.9
20240530005034 76 328 0.0 2.0 0.00 0.00 0.00 31 1013.8
20240530004526 76 328 1.0 2.0 0.00 0.00 0.00 32 1013.7
20240530004040 76 77 0.0 4.0 0.00 0.00 0.00 31 1013.7
20240530003534 77 78 2.0 4.0 0.00 0.00 0.00 29 1013.7
20240530003046 78 73 1.0 3.0 0.00 0.00 0.00 31 1013.7
20240530002540 78 69 1.0 3.0 0.00 0.00 0.00 32 1013.8
20240530002031 77 71 2.0 4.0 0.00 0.00 0.00 30 1013.8
20240530001539 77 77 2.0 4.0 0.00 0.00 0.00 31 1013.8
20240530001033 78 254 2.0 4.0 0.00 0.00 0.00 28 1013.8
20240530000525 78 100 2.0 4.0 0.00 0.00 0.00 30 1013.8
20240530000035 78 83 2.0 4.0 0.00 0.00 0.00 29 1013.8
20240529235527 78 300 2.0 4.0 0.00 0.00 0.00 29 1013.9
20240529235038 79 74 1.0 3.0 0.00 0.00 0.00 28 1014.0
20240529234529 79 74 2.0 3.0 0.00 0.00 0.00 29 1014.0
20240529234043 79 69 0.0 3.0 0.00 0.00 0.00 31 1014.0
20240529233531 79 69 0.0 3.0 0.00 0.00 0.00 26 1014.2
20240529233040 78 74 1.0 4.0 0.00 0.00 0.00 31 1014.2
20240529232530 78 73 1.0 5.0 0.00 0.00 0.00 29 1014.3
20240529232040 78 73 3.0 5.0 0.00 0.00 0.00 30 1014.5
20240529231531 76 229 1.0 2.0 0.00 0.00 0.00 37 1014.6
20240529231029 74 229 0.0 1.0 0.00 0.00 0.00 38 1014.7
20240529230558 73 229 0.0 1.0 0.00 0.00 0.00 42 1014.9
20240529230044 74 229 0.0 3.0 0.00 0.00 0.00 37 1015.3
20240529225536 75 229 0.0 4.0 0.00 0.00 0.00 35 1015.5
20240529225026 77 261 1.0 4.0 0.00 0.00 0.00 28 1015.6
20240529224537 77 74 1.0 2.0 0.00 0.00 0.00 27 1015.4
20240529224029 77 76 1.0 2.0 0.00 0.00 0.00 32 1015.3
20240529223522 78 76 1.0 4.0 0.00 0.00 0.00 30 1014.9
20240529223035 78 80 2.0 5.0 0.00 0.00 0.00 30 1014.7
20240529222527 77 101 3.0 6.0 0.00 0.00 0.00 29 1014.8
20240529222039 77 75 2.0 6.0 0.00 0.00 0.00 27 1014.7
20240529221530 77 20 2.0 10.0 0.00 0.00 0.00 30 1014.6
20240529221038 77 56 2.0 10.0 0.00 0.00 0.00 27 1014.5
20240529220548 78 262 2.0 6.0 0.00 0.00 0.00 28 1014.6
20240529220036 79 216 2.0 4.0 0.00 0.00 0.00 28 1014.6
20240529215529 81 81 0.0 1.0 0.00 0.00 0.00 28 1014.3
20240529215039 82 81 0.0 2.0 0.00 0.00 0.00 24 1014.0
20240529214529 81 81 1.0 2.0 0.00 0.00 0.00 26 1013.9
20240529214101 80 82 0.0 1.0 0.00 0.00 0.00 25 1014.1
20240529213529 81 82 0.0 4.0 0.00 0.00 0.00 25 1014.1
20240529213039 83 82 0.0 4.0 0.00 0.00 0.00 19 1014.2
20240529212529 83 75 1.0 4.0 0.00 0.00 0.00 20 1014.2
20240529212036 83 82 1.0 4.0 0.00 0.00 0.00 21 1014.3
20240529211605 83 83 1.0 4.0 0.00 0.00 0.00 20 1014.4
20240529211036 83 83 0.0 4.0 0.00 0.00 0.00 20 1014.4
20240529210523 82 73 0.0 2.0 0.00 0.00 0.00 22 1014.5
20240529210040 80 73 0.0 2.0 0.00 0.00 0.00 22 1014.5
20240529205535 80 73 0.0 4.0 0.00 0.00 0.00 26 1014.5
20240529205104 80 74 0.0 4.0 0.00 0.00 0.00 22 1014.3
20240529204533 79 258 0.0 1.0 0.00 0.00 0.00 27 1014.4
20240529204028 78 258 0.0 2.0 0.00 0.00 0.00 28 1014.6
20240529203535 78 258 0.0 2.0 0.00 0.00 0.00 27 1014.9
20240529203026 79 272 0.0 1.0 0.00 0.00 0.00 26 1015.0
20240529202539 77 272 0.0 2.0 0.00 0.00 0.00 27 1014.9
20240529202046 76 272 0.0 3.0 0.00 0.00 0.00 28 1015.1
20240529201544 76 288 1.0 3.0 0.00 0.00 0.00 27 1015.5
20240529201037 77 328 1.0 2.0 0.00 0.00 0.00 26 1015.7
20240529200529 77 283 0.0 4.0 0.00 0.00 0.00 27 1015.8
20240529200042 77 50 2.0 6.0 0.00 0.00 0.00 26 1015.8
20240529195538 78 346 2.0 6.0 0.00 0.00 0.00 24 1015.7
20240529195102 78 252 1.0 5.0 0.00 0.00 0.00 24 1015.6
20240529194533 78 277 2.0 5.0 0.00 0.00 0.00 22 1015.4
20240529194033 78 356 1.0 5.0 0.00 0.00 0.00 22 1015.4
20240529193527 77 268 2.0 6.0 0.00 0.00 0.00 24 1015.3
20240529193038 77 239 1.0 6.0 0.00 0.00 0.00 27 1015.2
20240529192531 77 283 2.0 5.0 0.00 0.00 0.00 25 1015.4
20240529192057 77 282 2.0 5.0 0.00 0.00 0.00 27 1015.5
20240529191527 77 259 2.0 7.0 0.00 0.00 0.00 28 1015.6
20240529191044 77 69 3.0 7.0 0.00 0.00 0.00 26 1015.6
20240529190535 77 287 1.0 6.0 0.00 0.00 0.00 29 1015.3
20240529190029 78 272 1.0 5.0 0.00 0.00 0.00 30 1015.1
20240529185543 78 254 2.0 6.0 0.00 0.00 0.00 27 1015.0
20240529185032 78 28 2.0 8.0 0.00 0.00 0.00 26 1014.9
20240529184543 79 87 1.0 8.0 0.00 0.00 0.00 25 1014.8
20240529184037 79 31 2.0 9.0 0.00 0.00 0.00 25 1014.7
20240529183526 80 85 5.0 9.0 0.00 0.00 0.00 25 1014.8
20240529183041 81 70 2.0 7.0 0.00 0.00 0.00 33 1014.7
20240529182533 79 69 2.0 9.0 0.00 0.00 0.00 29 1014.8
20240529182038 79 76 2.0 9.0 0.00 0.00 0.00 32 1014.9
20240529181549 80 59 2.0 5.0 0.00 0.00 0.00 34 1015.0
20240529181042 79 68 3.0 5.0 0.00 0.00 0.00 34 1014.9
20240529180539 79 333 1.0 5.0 0.00 0.00 0.00 30 1015.0
20240529180049 82 250 2.0 4.0 0.00 0.00 0.00 29 1015.1
20240529175539 83 50 1.0 6.0 0.00 0.00 0.00 27 1015.1
20240529175104 84 81 1.0 6.0 0.00 0.00 0.00 25 1015.0
20240529174526 85 85 1.0 7.0 0.00 0.00 0.00 25 1015.1
20240529174056 84 70 1.0 7.0 0.00 0.00 0.00 24 1015.1
20240529173541 83 87 1.0 7.0 0.00 0.00 0.00 27 1015.2
20240529173050 83 77 4.0 8.0 0.00 0.00 0.00 27 1015.3
20240529172540 83 81 5.0 8.0 0.00 0.00 0.00 26 1015.5
20240529172027 83 76 1.0 6.0 0.00 0.00 0.00 28 1015.6
20240529171536 82 241 2.0 6.0 0.00 0.00 0.00 28 1015.7
20240529171028 82 98 3.0 6.0 0.00 0.00 0.00 28 1015.8
20240529170535 82 62 3.0 6.0 0.00 0.00 0.00 28 1015.8
20240529170024 81 98 0.0 7.0 0.00 0.00 0.00 28 1015.8
20240529165539 81 83 1.0 7.0 0.00 0.00 0.00 31 1015.9
20240529165030 80 83 4.0 7.0 0.00 0.00 0.00 33 1015.9
20240529164540 78 76 4.0 7.0 0.00 0.00 0.00 33 1016.0
20240529164051 78 86 2.0 5.0 0.00 0.00 0.00 34 1016.1
20240529163537 77 86 1.0 7.0 0.00 0.00 0.00 37 1016.2
20240529163100 77 56 3.0 7.0 0.00 0.00 0.00 36 1016.2
20240529162532 76 89 2.0 7.0 0.00 0.00 0.00 36 1016.3
20240529162041 76 72 2.0 7.0 0.00 0.00 0.00 36 1016.3
20240529161553 75 77 3.0 6.0 0.00 0.00 0.00 37 1016.4
20240529161023 74 56 1.0 6.0 0.00 0.00 0.00 38 1016.5
20240529160533 74 60 1.0 6.0 0.00 0.00 0.00 38 1016.6
20240529160042 73 92 2.0 5.0 0.00 0.00 0.00 38 1016.6
20240529155555 72 71 1.0 5.0 0.00 0.00 0.00 40 1016.8
20240529155042 72 110 0.0 7.0 0.00 0.00 0.00 42 1016.8
20240529154529 71 98 0.0 7.0 0.00 0.00 0.00 43 1017.0
20240529154038 71 96 0.0 2.0 0.00 0.00 0.00 46 1017.1
20240529153527 70 96 1.0 2.0 0.00 0.00 0.00 44 1017.1
20240529153035 70 65 0.0 2.0 0.00 0.00 0.00 45 1017.2
20240529152551 69 65 0.0 4.0 0.00 0.00 0.00 46 1017.3
20240529152027 69 63 1.0 4.0 0.00 0.00 0.00 46 1017.4
20240529151552 68 108 0.0 2.0 0.00 0.00 0.00 48 1017.5
20240529151040 68 108 0.0 2.0 0.00 0.00 0.00 48 1017.6
20240529150527 67 129 0.0 2.0 0.00 0.00 0.00 49 1017.6
20240529150036 67 106 1.0 4.0 0.00 0.00 0.00 49 1017.7
20240529145548 66 81 1.0 4.0 0.00 0.00 0.00 50 1017.8
20240529145028 65 117 1.0 4.0 0.00 0.00 0.00 52 1017.8
20240529144535 65 63 0.0 2.0 0.00 0.00 0.00 53 1018.0
20240529144106 64 75 1.0 4.0 0.00 0.00 0.00 55 1018.0
20240529143537 64 82 1.0 4.0 0.00 0.00 0.00 55 1018.1
20240529143103 63 100 0.0 2.0 0.00 0.00 0.00 57 1018.2
20240529142532 62 58 0.0 2.0 0.00 0.00 0.00 58 1018.2
20240529142042 62 50 1.0 2.0 0.00 0.00 0.00 61 1018.3
20240529141534 61 74 0.0 2.0 0.00 0.00 0.00 66 1018.4
20240529141045 60 74 1.0 2.0 0.00 0.00 0.00 65 1018.4
20240529140528 60 74 1.0 2.0 0.00 0.00 0.00 66 1018.5
20240529140041 59 74 0.0 2.0 0.00 0.00 0.00 67 1018.5
20240529135559 58 74 0.0 1.0 0.00 0.00 0.00 70 1018.6
20240529135028 57 74 0.0 1.0 0.00 0.00 0.00 69 1018.7
20240529134538 57 74 0.0 1.0 0.00 0.00 0.00 71 1018.6
20240529134052 56 74 0.0 2.0 0.00 0.00 0.00 73 1018.7
20240529133531 55 74 0.0 2.0 0.00 0.00 0.00 75 1018.7
20240529133040 55 74 0.0 1.0 0.00 0.00 0.00 77 1018.7
20240529132550 54 74 0.0 1.0 0.00 0.00 0.00 81 1018.8
20240529132034 53 74 0.0 0.0 0.00 0.00 0.00 82 1018.9
20240529131542 53 74 0.0 0.0 0.00 0.00 0.00 82 1018.9
20240529131054 52 74 0.0 0.0 0.00 0.00 0.00 81 1018.9
20240529130525 51 74 0.0 0.0 0.00 0.00 0.00 80 1019.1
20240529130036 51 74 0.0 0.0 0.00 0.00 0.00 81 1019.2
20240529125547 50 74 0.0 0.0 0.00 0.00 0.00 82 1019.2
20240529125034 50 74 0.0 1.0 0.00 0.00 0.00 82 1019.2
20240529124525 50 74 0.0 1.0 0.00 0.00 0.00 83 1019.2
20240529124053 50 74 0.0 0.0 0.00 0.00 0.00 82 1019.2
20240529123532 49 74 0.0 0.0 0.00 0.00 0.00 81 1019.2
20240529123040 49 74 0.0 0.0 0.00 0.00 0.00 81 1019.3
20240529122535 49 74 0.0 0.0 0.00 0.00 0.00 80 1019.4